Time,TemperatureF,DewpointF,PressureIn,WindDirection,WindDirectionDegrees,WindSpeedMPH,WindSpeedGustMPH,Humidity,HourlyPrecipIn,Conditions,Clouds,dailyrainin,SoftwareType,DateUTC
2013-04-02 09:25:00,40.1,31.1,30.25,SSE,151,0.0,0.0,70,0.00,,,0.00,Wunderground v.1.15,2013-04-02 16:25:00,
2013-04-02 09:35:00,41.2,31.4,30.23,SSE,167,0.0,0.0,68,0.00,,,0.00,Wunderground v.1.15,2013-04-02 16:35:00,
2013-04-02 09:40:00,41.9,31.7,30.23,South,185,0.0,0.0,67,0.00,,,0.00,Wunderground v.1.15,2013-04-02 16:40:00,
2013-04-02 09:45:00,42.6,31.7,30.22,WSW,246,0.0,2.0,65,0.00,,,0.00,Wunderground v.1.15,2013-04-02 16:45:00,
2013-04-02 09:50:00,43.3,31.9,30.22,WSW,253,1.0,2.0,64,0.00,,,0.00,Wunderground v.1.15,2013-04-02 16:50:00,
2013-04-02 10:00:00,44.3,32.1,30.21,SSE,168,0.0,0.0,62,0.00,,,0.00,Wunderground v.1.15,2013-04-02 17:00:00,
2013-04-02 10:05:00,44.9,32.3,30.21,SSE,167,0.0,1.0,61,0.00,,,0.00,Wunderground v.1.15,2013-04-02 17:05:00,
2013-04-02 10:15:00,46.0,32.0,30.22,ENE,64,0.0,0.0,58,0.00,,,0.00,Wunderground v.1.15,2013-04-02 17:15:00,
2013-04-02 10:20:00,46.7,32.7,30.22,SSW,203,0.0,0.0,58,0.00,,,0.00,Wunderground v.1.15,2013-04-02 17:20:00,
2013-04-02 10:30:00,47.7,32.8,30.20,SW,229,0.0,0.0,56,0.00,,,0.00,Wunderground v.1.15,2013-04-02 17:30:00,
2013-04-02 10:40:00,48.9,33.0,30.20,WNW,302,0.0,2.0,54,0.00,,,0.00,Wunderground v.1.15,2013-04-02 17:40:00,
2013-04-02 10:45:00,49.4,32.5,30.20,North,10,1.0,2.0,52,0.00,,,0.00,Wunderground v.1.15,2013-04-02 17:45:00,
2013-04-02 10:55:00,49.8,32.4,30.20,NNE,27,1.0,1.0,51,0.00,,,0.00,Wunderground v.1.15,2013-04-02 17:55:00,
2013-04-02 11:00:00,50.4,32.9,30.19,NW,306,1.0,1.0,51,0.00,,,0.00,Wunderground v.1.15,2013-04-02 18:00:00,
2013-04-02 11:05:00,51.0,33.5,30.19,NW,305,1.0,1.0,51,0.00,,,0.00,Wunderground v.1.15,2013-04-02 18:05:00,
2013-04-02 11:15:00,51.7,33.1,30.18,South,184,0.0,1.0,49,0.00,,,0.00,Wunderground v.1.15,2013-04-02 18:15:00,
2013-04-02 11:20:00,52.2,33.6,30.18,WNW,282,1.0,4.0,49,0.00,,,0.00,Wunderground v.1.15,2013-04-02 18:20:00,
2013-04-02 19:35:00,58.1,27.6,30.07,WNW,302,0.0,1.0,31,0.00,,,0.00,Wunderground v.1.15,2013-04-03 02:35:00,
2013-04-02 19:40:00,57.6,27.9,30.07,WNW,287,0.0,1.0,32,0.00,,,0.00,Wunderground v.1.15,2013-04-03 02:40:00,
2013-04-02 19:50:00,56.9,29.5,30.08,West,265,0.0,1.0,35,0.00,,,0.00,Wunderground v.1.15,2013-04-03 02:50:00,
2013-04-02 20:00:00,56.0,30.1,30.09,West,263,1.0,6.0,37,0.00,,,0.00,Wunderground v.1.15,2013-04-03 03:00:00,
2013-04-02 20:20:00,55.1,31.8,30.08,NW,313,0.0,0.0,41,0.00,,,0.00,Wunderground v.1.15,2013-04-03 03:20:00,